GFSSW_925_temp_273.txt.gz
Temp
18 19 19 20 20 21 21 21 21 21 22 21 21 21 21 21 21 20 19 26 27 28 28 28 29 29 30 29 31 31 27 27 29 33 34 36 28 30 30 28 27 29 30 30 33
19 19 19 20 20 20 21 21 21 22 22 22 21 21 21 21 20 20 26 27 27 28 27 28 27 29 27 30 30 30 27 29 32 33 33 33 34 27 28 27 27 27 28 28 29
19 19 20 20 20 20 21 21 22 22 22 22 21 21 21 21 19 25 30 28 27 28 28 29 29 29 28 29 29 30 29 31 33 34 34 34 35 37 27 27 27 27 29 30 28
19 19 20 20 21 21 21 21 22 22 22 22 21 21 21 20 25 29 30 29 27 27 27 28 27 27 29 28 30 30 31 32 33 35 35 33 33 35 32 29 29 31 30 29 25
20 20 20 21 21 21 21 21 21 22 21 21 21 21 20 21 22 28 28 27 27 27 27 26 27 28 28 29 29 30 31 32 33 33 36 36 34 36 34 34 32 30 29 28 31
19 19 20 21 22 21 21 21 21 21 21 21 21 21 20 22 29 30 29 27 27 27 28 28 28 29 30 29 29 31 31 32 33 33 35 35 33 35 35 35 37 34 33 32 33
17 19 21 22 22 22 21 21 21 21 21 21 21 20 21 23 30 29 28 28 29 29 28 31 32 31 31 29 30 31 32 32 32 34 34 33 32 33 33 34 34 35 34 30 31
18 20 22 22 22 22 22 21 21 21 21 21 21 18 20 29 30 29 29 29 30 30 32 33 33 31 31 29 31 30 32 29 31 33 34 33 29 33 33 33 33 34 31 28 27
19 21 21 22 22 22 22 21 21 21 21 21 19 18 23 30 30 31 31 30 31 31 32 33 32 31 30 28 27 29 28 30 30 33 33 32 30 33 32 32 31 31 29 29 27
20 21 21 22 22 22 22 20 20 21 21 19 20 22 24 29 32 32 32 32 31 32 30 30 28 27 25 25 25 27 28 29 30 33 33 30 31 32 32 32 31 30 29 27 26
20 21 22 22 23 22 21 20 18 19 22 23 25 26 31 31 32 31 32 32 31 30 27 28 25 24 25 27 29 31 30 30 32 33 32 30 30 30 31 30 30 28 27 25 24
20 21 22 22 23 22 21 21 26 28 25 25 26 27 29 31 32 31 32 29 29 27 28 27 25 27 30 31 31 31 30 30 31 34 32 30 31 31 31 30 29 28 26 24 22
21 21 22 22 23 21 22 25 29 29 25 28 29 28 29 31 31 31 31 29 28 27 27 26 28 31 31 31 31 30 30 31 31 32 32 31 30 31 32 31 30 28 25 24 22
22 22 22 22 20 24 24 28 29 29 22 28 29 31 31 31 30 33 32 30 29 28 27 27 30 31 31 31 31 29 32 33 32 30 27 31 27 28 30 29 29 27 25 24 22
22 23 22 22 22 23 29 29 29 28 22 31 32 34 34 30 32 31 33 30 28 29 29 28 29 30 30 31 32 30 32 31 31 29 28 30 26 27 29 29 28 26 25 24 23
22 23 24 23 23 27 28 28 28 23 24 31 32 31 31 32 32 32 31 31 30 29 29 29 31 31 31 33 32 33 31 30 29 27 27 27 28 30 28 30 29 27 26 25 24
23 23 23 24 25 27 27 26 23 23 31 30 31 32 31 30 31 31 30 28 27 26 25 28 29 31 32 30 31 31 29 24 24 24 26 28 27 29 30 32 30 27 26 25 24
23 23 24 24 26 27 26 23 24 28 28 29 29 30 29 30 30 31 29 28 28 27 27 26 26 29 32 31 28 28 27 25 23 24 27 28 29 30 31 31 31 28 26 25 24
23 24 24 26 27 26 21 22 25 27 27 27 28 28 27 29 29 29 28 29 30 29 26 27 27 31 32 32 31 29 28 28 26 25 25 27 28 29 29 28 29 28 26 25 25
20 22 25 26 26 26 22 22 26 27 27 26 25 26 23 25 25 25 26 29 29 31 28 27 26 30 31 31 31 30 29 27 24 23 23 25 26 27 29 26 27 26 25 24 24
20 22 26 26 26 21 21 25 26 27 25 24 23 23 23 21 22 23 26 27 25 23 27 26 24 26 28 29 29 29 28 27 25 24 23 25 26 28 29 27 26 26 25 24 24
16 21 24 26 20 20 19 22 22 24 22 21 21 21 19 19 20 21 23 24 20 21 19 19 21 23 25 28 29 28 28 28 27 24 23 22 24 30 25 27 26 26 25 24 23
16 20 23 22 17 17 19 23 23 20 18 18 18 19 18 17 17 20 18 20 18 18 16 16 17 19 21 25 26 26 28 26 24 25 22 22 23 27 28 26 22 21 20 20 18
16 17 17 18 17 17 17 17 18 19 18 17 17 17 15 14 15 15 16 18 17 16 17 15 15 16 18 21 23 23 25 25 21 20 21 23 25 26 26 24 22 20 20 19 19
16 15 16 16 16 15 15 15 16 15 16 16 15 15 14 13 14 14 14 14 15 16 14 13 12 13 13 15 18 21 24 25 24 23 21 23 21 22 23 24 21 20 21 21 19
13 13 14 17 16 15 14 14 15 15 15 15 14 15 14 12 13 12 12 12 12 13 12 12 11 13 12 17 19 20 22 24 25 25 23 23 22 23 24 24 21 21 22 22 20
12 14 14 16 15 14 14 15 15 15 16 16 15 14 14 13 13 13 12 12 12 12 11 11 11 11 11 14 15 16 20 22 23 24 20 20 20 23 24 25 23 23 23 24 23

GFSSW_925_temp_279.txt.gz
Temp
19 19 19 19 20 20 20 20 21 21 21 21 21 21 21 21 21 20 17 26 27 27 27 27 27 27 27 26 27 24 24 24 28 29 29 26 26 27 27 27 27 28 28 28 25
19 19 20 20 20 20 20 20 21 21 21 21 21 21 21 21 20 18 28 27 27 26 27 25 25 26 24 26 26 24 23 26 27 29 30 26 26 27 27 27 27 28 28 26 25
19 19 20 20 21 21 20 20 21 21 21 21 21 21 21 20 18 23 28 28 27 26 26 26 26 26 26 26 28 26 25 26 28 28 29 27 27 27 26 27 26 27 27 25 25
17 18 19 20 21 20 20 20 20 21 21 21 21 21 20 19 26 28 28 29 26 26 25 26 25 25 24 26 27 28 27 28 29 30 30 28 28 27 26 28 28 28 28 25 25
17 17 18 20 20 21 21 21 21 21 21 21 21 21 19 19 20 28 28 28 26 25 25 24 25 25 26 26 27 26 27 28 28 27 28 29 27 27 26 29 29 28 29 27 25
18 18 18 19 20 21 21 21 20 21 20 20 20 20 19 21 27 27 27 27 26 25 24 24 24 24 26 26 27 27 28 27 27 28 27 28 29 28 28 29 29 28 27 27 26
18 19 19 20 21 21 21 20 20 20 20 20 20 18 17 20 26 26 26 27 26 25 23 25 26 27 26 26 26 28 28 26 29 30 29 29 30 28 31 28 28 28 27 27 26
20 19 20 21 21 21 21 20 19 20 20 20 19 17 18 25 25 26 26 27 26 26 26 27 27 26 26 25 25 27 26 27 27 29 31 30 28 29 29 28 28 27 26 24 24
20 20 20 21 21 22 21 20 19 20 20 19 17 17 19 25 24 27 27 27 27 26 26 27 27 24 26 24 22 21 25 26 27 28 30 30 28 29 28 26 26 25 24 23 22
20 20 20 21 22 21 20 19 19 19 17 17 17 18 22 27 27 28 28 27 27 27 27 26 21 23 20 21 22 24 26 26 26 28 29 28 27 26 28 26 25 23 23 23 22
20 21 21 22 22 21 20 19 17 17 17 21 22 22 25 28 28 27 27 26 27 26 25 25 23 22 23 23 24 25 25 24 25 27 29 26 26 28 26 25 23 23 23 22 21
20 21 21 22 22 21 19 18 22 23 20 20 21 22 25 27 25 26 28 26 25 24 25 24 22 23 24 24 24 24 24 24 25 27 26 26 26 26 25 26 25 24 23 21 19
21 21 22 22 21 20 20 23 24 23 21 23 21 22 23 25 24 25 26 25 26 24 24 23 24 25 24 24 24 24 24 24 25 27 26 27 26 27 27 26 26 25 24 22 21
20 21 22 22 19 21 20 24 24 24 19 23 25 25 24 26 26 27 28 26 26 25 24 23 24 25 24 24 24 23 24 26 26 25 24 27 24 25 27 25 24 23 21 22 20
21 22 23 23 22 21 25 25 25 24 22 28 28 28 26 26 29 29 28 27 25 25 24 24 26 26 25 25 25 25 27 25 25 24 25 26 24 24 26 27 23 23 20 21 19
22 23 23 23 22 25 25 25 24 20 24 26 28 27 27 28 27 28 28 27 26 25 25 25 26 26 25 27 26 27 26 25 22 21 22 23 23 23 24 27 25 24 24 20 18
23 23 24 23 23 24 25 21 20 21 25 24 25 26 25 23 23 24 24 18 17 19 22 25 25 26 27 26 26 26 23 21 22 21 22 24 22 24 26 25 27 23 23 21 19
23 24 23 22 22 24 23 19 20 23 23 25 25 25 22 21 22 20 19 16 17 16 17 21 23 24 26 25 26 22 22 20 22 21 24 23 22 26 26 27 25 24 25 22 19
23 23 21 22 23 24 17 16 15 17 18 21 23 21 20 20 20 20 15 14 15 15 14 16 21 23 25 27 26 26 22 23 22 23 20 22 23 26 27 25 24 22 21 21 20
22 22 20 21 23 22 16 17 16 17 18 19 17 17 16 15 18 18 14 14 14 15 15 13 13 21 24 27 26 25 25 25 19 22 21 21 22 23 25 25 25 25 21 20 20
21 16 20 21 22 15 14 15 16 17 17 16 15 14 14 14 15 14 14 14 14 15 14 12 12 17 21 24 23 23 23 23 22 19 23 23 23 21 23 23 23 21 21 20 19
15 14 19 21 14 10 12 15 15 16 16 15 15 14 13 13 14 14 14 13 14 14 12 12 11 12 17 19 18 20 16 14 16 18 18 18 20 22 21 21 20 20 19 18 19
13 11 19 18 12 11 14 15 15 15 14 14 13 14 13 12 13 13 12 14 13 13 12 11 10 11 16 17 14 13 14 14 14 14 16 19 21 22 19 19 19 19 19 18 17
9 11 10 9 9 11 12 13 14 15 14 14 14 13 12 12 12 11 11 13 13 13 14 11 9 10 12 13 13 13 13 14 14 13 15 16 18 21 18 19 18 18 18 18 17
7 10 9 9 10 10 11 13 12 12 13 11 12 11 12 9 9 10 11 11 12 13 12 10 8 9 11 12 12 12 12 13 14 15 15 17 18 17 15 15 17 18 18 17 17
7 9 7 8 9 10 9 10 11 12 11 11 10 11 10 9 10 8 9 9 9 10 10 8 7 9 9 11 11 12 12 13 14 16 18 18 18 16 15 16 17 17 18 17 17
9 9 7 8 9 9 9 10 10 11 11 11 10 9 9 10 10 9 8 8 8 9 8 8 7 7 9 11 11 10 12 13 14 15 14 15 14 14 14 15 14 15 17 18 18

GFSSW_925_temp_282.txt.gz
Temp
18 19 19 19 19 19 19 20 20 20 20 21 21 21 21 21 21 19 17 26 26 26 27 26 27 27 27 26 26 23 23 24 28 28 29 26 28 26 26 27 26 27 25 26 22
17 18 19 19 19 20 20 20 20 20 20 21 21 21 21 21 19 17 27 26 26 26 25 25 25 25 23 26 25 23 23 26 26 28 28 26 26 27 28 27 27 27 25 23 21
16 16 17 19 19 20 20 20 20 20 20 21 21 21 21 20 18 23 27 27 25 26 26 26 26 25 26 25 25 24 25 26 28 27 27 27 27 26 26 27 26 26 24 23 21
17 16 17 19 20 21 20 20 20 20 21 21 21 21 20 19 26 26 27 28 26 25 25 25 24 24 24 26 26 28 26 27 28 29 29 28 27 27 25 28 27 26 24 23 22
18 17 19 19 20 20 21 20 20 20 20 20 20 20 19 19 20 26 26 28 25 25 25 23 24 23 24 24 26 26 27 27 27 27 26 28 27 28 26 26 27 25 24 24 23
18 18 19 20 21 21 21 20 20 20 20 20 20 20 18 21 25 25 25 26 25 24 23 23 23 23 25 25 26 26 27 27 26 28 26 27 27 29 29 26 27 26 24 24 24
18 18 19 20 21 21 21 20 20 20 20 20 19 18 17 20 25 25 24 25 25 25 22 24 25 26 25 26 25 26 27 26 28 29 30 26 29 27 29 27 26 26 25 25 24
18 18 19 20 21 21 21 20 19 20 19 19 18 17 18 24 25 25 25 25 25 25 25 25 26 25 25 25 23 26 24 26 27 29 28 28 27 27 27 27 26 25 25 25 24
19 18 20 20 20 21 20 19 19 19 19 18 17 17 19 24 23 27 26 26 25 24 25 25 26 23 24 22 21 20 24 25 27 27 28 29 28 29 28 25 27 24 24 25 24
19 19 20 21 21 21 20 19 19 18 16 16 16 18 22 26 26 26 26 26 26 24 25 25 20 20 18 20 21 23 24 25 25 27 28 27 26 25 25 25 26 24 23 23 23
20 20 21 21 21 20 19 19 16 17 16 21 22 22 24 27 27 26 25 25 26 24 24 23 22 21 22 22 23 24 24 23 23 25 27 25 24 25 25 23 23 22 22 22 22
19 20 21 21 21 20 19 17 21 22 19 18 19 20 23 26 25 26 26 25 25 23 24 22 21 22 23 23 24 24 23 22 23 24 24 24 25 26 23 23 24 23 22 22 20
19 20 21 21 20 19 20 22 22 21 19 22 20 21 22 24 23 24 25 24 24 23 23 22 24 23 23 24 24 23 23 22 23 24 25 25 23 25 26 24 24 23 23 23 22
20 21 22 21 19 20 20 22 23 21 19 24 25 25 24 23 25 25 26 25 25 23 22 22 23 24 23 24 23 23 23 23 24 23 23 25 22 24 25 24 23 22 21 21 21
21 22 22 21 21 20 23 23 23 22 21 25 26 26 24 26 27 26 26 26 24 24 23 24 25 24 23 23 23 23 24 24 25 22 23 23 22 24 25 25 23 21 20 20 20
22 23 22 20 21 22 23 23 22 20 23 24 25 25 25 23 23 22 20 18 19 22 24 23 25 24 24 25 24 26 26 23 19 19 20 22 22 22 24 26 26 22 21 20 19
23 22 21 21 17 23 23 20 19 19 23 22 23 23 21 20 21 19 16 15 13 16 17 19 23 25 27 25 25 25 21 19 20 20 20 22 21 22 25 24 26 26 22 22 21
22 22 20 20 20 23 22 18 19 19 18 20 20 21 18 18 19 15 15 14 15 14 13 15 20 23 21 24 23 21 20 19 21 20 21 22 21 23 24 25 24 24 23 22 20
22 21 20 20 22 22 16 13 13 15 17 17 18 18 16 17 18 15 13 13 14 14 12 12 16 18 21 21 25 23 21 22 21 21 19 21 22 23 24 24 23 23 22 20 19
22 20 18 19 21 20 14 14 15 16 16 17 16 15 14 15 16 15 13 13 13 14 13 12 11 17 18 20 23 23 22 23 17 21 20 20 21 22 26 24 23 22 21 20 18
21 16 19 20 20 13 12 14 15 16 16 14 14 13 13 13 14 13 12 12 13 13 12 11 11 14 17 18 16 16 14 14 17 18 20 22 22 20 23 24 22 22 21 18 18
14 15 19 19 12 9 11 15 15 14 14 14 13 13 13 12 13 12 12 13 13 12 11 12 9 9 14 16 15 14 14 12 11 14 13 15 17 18 17 18 18 18 19 17 18
12 10 18 16 10 9 12 14 14 13 13 13 12 13 12 11 11 12 11 13 12 11 11 11 8 8 12 14 13 12 14 12 12 12 12 14 17 19 19 18 16 16 17 18 18
9 10 9 9 7 10 11 11 13 13 12 12 11 12 11 9 9 10 10 12 12 12 14 10 7 9 9 10 10 10 12 12 11 10 13 14 15 17 18 15 15 15 17 16 17
6 8 7 8 9 10 10 10 11 11 11 10 10 10 10 9 9 10 10 10 11 12 11 9 7 8 8 10 10 10 11 11 11 11 11 14 15 17 15 13 14 14 15 17 16
8 8 6 6 8 8 8 9 10 10 10 9 9 9 10 8 9 8 9 8 8 9 8 6 7 8 9 10 10 10 11 11 11 11 12 13 14 14 13 13 14 13 13 17 17
8 9 7 7 7 8 8 9 9 9 10 10 9 8 9 9 9 7 7 7 8 8 7 7 7 7 8 8 9 9 10 11 11 11 12 11 14 13 13 13 14 13 12 13 14

GFSSW_925_temp_285.txt.gz
Temp
18 18 18 18 19 20 20 20 20 20 21 21 21 21 21 21 21 20 21 26 26 26 26 26 26 26 27 29 28 28 32 31 31 32 33 31 31 29 29 31 30 30 29 27 23
18 17 17 18 18 19 19 20 20 20 21 21 21 21 21 21 19 18 26 26 25 26 25 26 28 27 29 29 29 32 31 32 31 31 33 32 30 31 30 30 31 30 26 24 22
19 18 17 18 19 20 20 20 20 20 21 21 21 21 20 20 20 26 26 26 24 25 25 25 26 28 29 28 29 29 32 31 31 31 31 31 29 30 31 32 33 32 28 25 24
19 18 18 18 18 20 20 20 20 20 21 21 21 20 20 19 27 25 26 26 24 25 25 25 27 28 29 30 29 30 30 30 31 31 31 32 31 31 31 33 31 32 29 27 26
19 18 18 18 19 19 20 20 20 20 20 20 20 20 19 22 25 25 26 26 24 24 25 26 27 27 29 29 28 29 30 30 31 30 31 30 32 32 32 31 30 30 28 27 27
18 18 18 18 18 20 20 20 20 20 20 20 20 20 19 23 24 24 25 24 25 24 24 26 27 27 28 28 29 29 29 30 31 31 30 32 31 30 35 32 30 30 29 28 27
18 18 19 18 19 20 20 20 20 20 20 20 19 18 19 24 24 24 24 24 24 25 25 24 25 27 27 28 27 28 30 30 31 32 32 31 31 32 34 31 32 30 30 29 28
18 18 18 19 20 20 20 19 19 19 19 19 18 17 22 24 24 24 24 24 24 24 25 24 25 27 27 27 27 29 29 30 32 31 31 31 33 34 33 31 31 31 30 29 28
19 18 18 19 20 20 20 19 19 19 19 18 17 18 24 24 23 24 25 25 23 24 25 25 26 26 27 28 28 27 29 28 30 30 30 31 33 33 31 31 31 31 31 30 30
19 19 19 20 20 20 20 19 19 18 17 16 16 20 24 27 25 24 24 25 26 25 26 26 26 27 26 28 29 28 28 28 29 30 30 30 31 33 32 31 32 31 31 32 31
19 19 20 21 20 19 19 17 20 20 17 24 25 24 25 26 25 25 24 26 27 27 27 25 27 27 28 27 27 27 27 27 28 29 28 30 30 31 32 29 31 32 30 31 32
19 20 20 21 20 19 19 21 22 22 23 22 21 21 22 24 26 26 25 27 27 27 26 26 27 27 26 25 26 26 27 28 27 27 27 30 30 31 31 31 31 32 31 31 31
19 20 21 21 20 18 19 21 20 20 22 24 23 23 24 25 26 27 27 26 27 26 26 27 27 25 26 26 26 27 27 27 27 28 28 28 29 31 31 29 29 29 30 31 30
20 21 21 20 17 19 19 20 21 20 24 26 26 25 25 25 26 25 25 27 27 27 26 26 27 26 26 26 27 26 27 27 27 26 28 28 28 30 31 30 30 31 29 29 29
20 21 21 20 20 20 20 21 21 22 25 26 27 26 25 26 25 23 21 26 24 26 26 27 27 26 26 27 26 28 27 27 27 27 26 28 27 30 28 31 32 32 29 29 29
21 21 21 19 20 21 22 21 22 24 23 25 26 24 25 23 22 22 20 20 19 23 25 25 26 27 28 27 27 28 28 27 24 26 26 29 28 30 31 31 33 32 32 30 28
21 21 20 19 19 21 22 22 24 23 23 21 21 22 22 21 20 19 18 17 17 22 20 22 25 26 24 26 28 27 26 26 27 27 27 29 27 29 31 32 32 33 33 31 29
20 20 19 18 19 21 21 24 22 19 19 20 20 21 20 19 18 17 17 17 16 16 19 19 25 22 22 23 24 25 26 27 25 26 28 26 27 30 30 32 32 30 31 30 29
20 19 18 19 20 21 23 19 17 16 17 17 19 20 19 19 19 16 15 15 15 15 16 17 20 20 22 21 22 25 25 24 25 27 25 27 29 29 29 30 31 30 30 29 29
20 19 18 19 20 20 19 15 16 16 16 17 18 17 17 17 18 17 14 14 14 15 15 14 16 18 19 23 22 21 22 24 25 24 24 27 26 28 26 22 23 23 23 23 25
20 21 17 19 19 18 17 16 16 16 16 16 16 16 15 14 16 15 14 13 14 14 15 14 14 17 20 20 17 19 20 18 19 21 23 25 27 22 20 21 21 22 21 22 22
15 20 17 19 17 14 15 16 15 15 16 15 15 14 14 14 14 14 14 14 14 13 14 14 12 14 16 17 17 17 15 15 17 19 18 18 22 21 21 21 21 21 21 20 21
17 15 17 15 16 14 15 14 14 14 13 14 14 14 13 13 13 13 13 14 14 13 13 13 13 15 17 16 16 15 15 15 15 15 16 17 23 22 22 21 21 20 20 19 18
14 16 15 13 12 14 14 13 13 13 13 13 13 14 13 13 12 13 13 13 13 13 13 13 12 12 12 13 13 13 13 14 13 13 16 17 18 19 19 18 19 19 18 18 19
12 11 9 13 12 13 13 13 13 12 12 12 12 12 12 12 12 12 12 12 13 12 12 12 12 12 13 13 12 12 12 13 13 14 13 14 14 15 16 16 17 17 18 17 18
13 13 10 10 11 12 11 11 12 11 12 11 11 11 11 12 11 11 11 11 11 12 11 10 12 11 12 13 13 12 13 13 13 13 14 14 14 16 14 14 15 16 15 15 16
7 9 13 10 11 12 11 11 11 11 10 11 10 10 11 11 11 11 11 11 11 10 11 11 11 11 12 12 12 12 11 12 11 12 12 10 13 12 12 11 11 12 14 14 14

GFSSW_925_temp_288.txt.gz
Temp
17 17 17 18 19 19 20 20 20 21 21 20 21 21 21 21 21 20 26 28 26 26 26 28 29 31 32 35 35 36 35 36 36 36 36 36 35 35 36 36 35 34 34 32 28
16 17 16 17 18 19 20 20 20 20 20 20 21 21 21 21 20 25 27 26 26 26 27 30 32 32 34 34 35 35 35 36 36 36 36 37 36 35 35 35 36 34 31 30 28
16 16 17 17 18 19 20 20 20 20 20 20 20 21 21 21 25 30 26 26 25 26 28 30 31 33 34 35 35 35 34 37 36 36 36 36 36 36 35 36 37 36 33 31 29
17 16 17 18 19 19 20 20 20 20 20 20 21 21 21 18 30 28 26 26 25 25 28 30 32 32 33 33 35 33 35 35 36 36 36 36 36 36 36 38 37 37 35 32 32
17 16 17 18 19 19 20 20 20 20 20 20 21 21 20 26 30 25 26 26 23 26 30 31 32 33 33 34 34 33 35 35 35 35 36 36 36 36 37 38 37 37 35 33 33
17 17 17 18 19 20 20 20 20 20 20 20 20 20 22 28 26 24 23 24 26 28 30 31 32 33 33 33 33 35 35 35 35 35 36 35 37 35 38 38 36 35 35 34 34
18 18 18 18 19 20 20 20 20 20 20 20 20 18 24 29 25 25 25 27 27 28 30 30 30 31 33 33 33 33 33 34 35 35 35 36 35 35 38 37 36 36 36 35 34
18 18 18 19 20 20 20 19 19 19 19 20 19 19 27 25 25 25 26 26 26 27 28 28 29 32 32 32 32 32 33 33 36 36 35 34 34 37 38 37 37 36 36 36 35
18 18 19 19 20 20 19 19 19 19 19 19 19 22 29 25 26 27 27 29 27 27 27 28 30 31 31 32 32 32 32 33 34 35 35 34 35 37 37 37 37 37 37 36 36
18 19 20 20 20 20 19 19 18 18 16 16 19 24 28 29 28 27 27 28 29 29 29 30 31 31 32 32 32 33 32 33 33 34 34 35 35 37 37 36 36 37 37 37 36
18 19 20 21 20 19 17 16 21 22 22 28 28 27 29 28 27 28 28 29 30 30 30 30 31 31 32 32 32 31 31 32 33 33 32 33 34 35 36 36 36 37 37 37 37
19 20 20 20 20 19 17 26 25 24 27 27 27 26 27 27 29 29 28 30 30 30 30 30 31 32 31 30 30 31 31 31 33 32 31 33 33 35 35 36 36 37 37 37 37
19 20 21 21 20 18 22 24 22 22 27 28 28 28 28 28 29 29 30 31 30 30 30 30 31 30 30 30 30 31 30 31 31 32 32 32 32 33 35 36 36 36 36 37 37
19 20 21 20 18 22 25 22 22 22 29 29 29 28 29 29 27 27 26 29 30 30 31 30 32 30 30 30 31 30 32 31 31 31 31 32 31 34 35 35 35 36 36 36 36
19 21 21 20 21 25 23 22 22 24 28 29 28 28 29 29 28 27 25 29 29 30 30 31 30 30 30 31 30 31 31 31 31 30 31 32 31 33 35 34 34 36 37 37 37
20 21 20 18 19 22 22 21 23 27 26 27 28 27 28 26 25 26 26 27 25 28 29 30 30 30 29 30 30 31 30 31 31 31 30 31 32 33 34 34 35 36 37 37 37
20 20 19 19 24 21 21 26 28 28 26 25 24 25 25 24 23 24 24 22 23 26 28 29 29 28 27 28 31 30 29 29 30 31 31 33 33 33 34 35 35 35 36 37 37
19 19 19 20 20 20 23 28 26 23 23 23 23 25 23 23 22 22 23 23 21 22 26 26 27 25 25 25 25 27 28 29 27 29 31 33 30 32 34 34 33 30 30 30 31
19 19 21 19 19 20 27 27 23 21 21 21 23 25 23 23 23 22 20 20 19 20 22 23 26 24 24 25 26 27 27 26 26 28 29 31 32 33 33 30 28 28 27 27 27
21 23 21 18 20 24 27 20 20 19 20 21 23 22 23 22 23 22 20 18 18 18 20 19 21 23 23 26 26 24 25 25 28 26 26 29 30 32 27 26 25 25 25 25 25
21 26 20 18 21 26 24 21 19 19 19 20 20 20 20 20 21 20 18 17 17 18 19 19 18 23 23 22 21 23 25 22 23 25 25 26 29 27 25 25 23 23 24 24 24
23 25 19 18 24 22 22 20 17 18 19 18 19 19 19 19 19 18 18 17 17 17 18 17 18 20 20 20 21 21 19 19 20 23 23 22 24 26 26 25 23 22 22 23 23
23 22 19 20 22 19 18 17 17 17 17 18 17 18 18 17 17 17 17 16 16 17 16 17 18 20 21 20 20 19 19 19 18 18 18 20 23 27 26 23 22 21 21 22 22
22 22 20 20 21 19 18 17 16 16 16 17 17 18 18 17 18 16 16 15 16 16 13 15 16 16 18 17 17 16 17 18 17 17 19 20 21 22 22 20 20 20 20 19 19
21 16 15 19 18 18 18 18 17 16 16 16 16 16 17 17 17 16 16 15 15 14 15 16 16 16 17 17 17 16 16 17 17 17 17 18 17 19 19 19 18 19 18 18 18
19 18 17 16 17 18 16 16 16 15 16 15 16 15 16 16 16 15 16 16 15 16 15 15 16 15 17 17 17 16 16 16 17 17 16 16 16 19 19 19 18 18 18 18 18
15 15 18 15 16 17 15 15 15 15 14 14 15 16 15 14 14 15 15 15 15 15 15 15 15 15 16 16 17 15 15 15 14 14 14 14 16 17 17 17 15 15 17 17 18

GFSSW_925_temp_291.txt.gz
Temp
18 16 15 17 17 18 20 20 20 21 21 21 21 21 22 22 22 21 28 30 29 27 27 31 32 33 34 36 37 38 36 37 38 39 39 40 39 39 40 39 39 38 38 37 32
17 16 17 17 17 19 20 20 20 21 21 21 21 21 21 21 21 27 29 28 27 27 28 32 34 35 35 36 37 36 36 38 40 39 39 39 39 39 38 38 38 37 36 34 32
18 17 16 16 17 20 20 21 20 21 21 21 21 21 21 21 26 32 28 27 27 26 28 32 34 36 35 36 37 37 36 39 39 39 38 39 39 39 38 38 39 38 36 35 33
18 18 17 18 19 20 21 21 20 20 21 21 21 21 21 20 31 29 27 27 27 26 30 32 34 34 34 35 37 36 37 38 39 38 38 38 39 39 39 39 41 40 37 35 34
17 18 18 18 19 20 21 21 20 20 20 21 21 21 21 27 31 28 27 28 26 27 32 34 34 35 35 36 37 36 37 38 38 38 38 38 38 39 39 40 40 40 37 36 36
16 17 18 18 19 20 20 21 20 20 20 20 20 20 22 29 30 29 28 26 29 30 33 34 35 36 36 36 37 38 37 37 38 38 38 37 38 38 39 40 39 39 38 37 37
17 17 17 18 18 20 21 20 20 20 20 20 20 19 26 31 30 29 29 31 30 32 33 33 34 34 35 35 37 36 35 36 37 37 37 38 37 37 40 40 39 38 38 38 37
17 17 18 19 19 20 20 20 20 20 20 20 20 20 29 30 29 29 30 30 30 30 31 32 32 34 35 36 35 35 35 34 37 37 37 37 35 38 40 40 39 39 39 38 38
18 18 19 19 20 20 20 19 20 20 20 20 19 24 31 28 29 30 30 32 30 31 31 31 32 34 35 33 34 35 34 35 36 39 38 37 36 38 40 40 39 39 39 39 39
18 18 19 20 20 20 19 19 19 19 18 19 23 27 30 32 31 31 31 31 32 32 32 32 33 33 34 35 34 35 35 36 36 37 37 37 37 38 39 39 38 39 39 39 39
18 19 20 20 20 19 19 17 22 23 25 30 31 31 32 31 30 31 31 32 32 32 32 32 33 33 35 35 35 35 34 34 36 37 35 35 36 37 39 39 39 38 39 39 39
19 20 20 20 20 19 18 28 28 28 30 31 31 31 30 31 31 32 31 32 32 32 33 32 32 35 35 34 33 33 33 34 35 36 35 35 35 36 37 38 39 39 39 39 39
19 20 21 20 19 18 24 28 27 27 29 30 31 32 31 31 32 32 32 32 32 32 33 33 34 33 33 33 32 33 33 34 34 35 35 34 34 35 37 38 38 38 39 39 39
20 20 21 21 18 26 27 27 27 27 29 30 31 31 31 32 30 30 31 31 33 32 33 34 35 33 32 33 33 33 35 34 34 33 33 36 33 36 37 37 37 38 38 39 38
20 21 21 20 20 28 27 27 27 27 29 32 30 31 32 32 30 29 30 31 31 33 32 33 33 32 32 33 33 32 34 33 33 33 33 34 34 35 37 36 37 38 38 38 39
21 22 21 19 20 27 27 27 27 28 28 30 30 30 30 30 30 30 30 31 31 31 32 33 33 32 31 32 32 33 32 33 33 33 32 33 34 34 36 37 37 37 37 36 36
21 21 21 22 28 26 26 28 28 29 30 28 28 29 29 28 27 29 28 27 29 28 30 32 32 31 30 30 33 33 32 31 31 33 32 35 35 35 36 37 34 32 31 31 31
19 21 22 24 25 25 26 29 27 29 28 27 27 28 28 28 26 27 28 27 25 26 30 30 29 29 28 28 29 30 30 30 28 30 32 34 33 35 36 34 32 30 29 29 28
20 22 25 24 24 25 28 29 28 27 25 26 27 28 27 27 27 26 24 24 23 24 26 27 29 28 27 28 29 29 29 29 28 30 30 32 33 35 32 30 28 27 27 26 27
22 27 25 23 24 26 28 23 25 23 24 25 27 26 28 26 27 27 24 22 22 22 24 24 25 27 27 28 29 27 28 27 29 27 27 31 32 28 27 26 25 25 25 25 26
22 28 24 24 25 29 28 26 23 23 23 24 25 25 25 25 26 25 23 21 21 22 23 22 22 27 27 25 24 26 27 25 25 26 27 27 30 29 27 26 25 25 24 24 23
26 27 24 24 28 28 27 24 18 22 23 22 23 24 24 24 24 23 22 20 20 21 22 21 21 23 25 24 24 24 22 22 22 23 24 23 26 30 29 28 25 24 24 24 23
27 27 24 25 27 25 23 22 21 21 21 22 21 22 22 22 21 21 19 19 20 20 18 20 21 23 23 23 23 22 22 21 21 21 20 22 24 29 27 25 24 23 23 23 22
26 26 25 26 25 24 22 21 19 20 20 21 20 21 21 21 21 20 18 18 19 18 14 17 20 20 21 21 21 20 20 20 20 19 21 21 22 23 23 22 22 22 22 22 22
25 21 20 23 23 22 22 22 20 19 19 20 20 21 21 20 20 19 19 18 18 16 18 18 20 19 20 20 20 19 19 20 19 20 18 19 20 20 19 18 18 20 21 21 20
23 22 22 21 21 21 19 21 19 19 20 19 19 20 21 20 20 19 19 19 19 19 18 18 19 19 19 20 20 19 19 18 17 17 17 17 17 16 17 17 16 17 16 16 17
20 21 22 17 21 21 20 19 18 19 18 19 19 20 18 17 19 19 18 18 18 18 18 18 18 18 19 19 20 16 16 16 16 16 11 10 11 13 12 13 14 13 10 11 13

GFSSW_925_temp_297.txt.gz
Temp
18 18 18 17 17 18 19 20 20 20 21 21 21 21 21 21 21 21 19 27 28 29 29 29 30 31 32 29 30 31 27 28 30 32 34 30 30 30 32 31 31 33 32 31 32
18 18 18 17 17 18 19 20 20 21 21 21 21 21 21 21 21 20 27 27 28 29 29 29 27 29 28 30 29 29 27 29 32 33 35 35 32 30 31 33 29 31 33 32 32
17 18 19 19 19 19 19 20 20 21 21 21 21 21 21 20 19 25 30 29 28 28 29 29 29 28 29 29 29 30 29 31 33 33 35 35 31 30 31 30 26 24 29 31 32
17 18 18 18 19 19 20 21 21 21 21 21 20 21 21 19 26 29 30 28 28 28 27 29 28 27 29 29 29 30 31 33 34 35 35 36 30 31 31 30 30 32 32 32 31
18 18 19 19 19 19 20 21 21 21 20 20 21 21 20 20 22 29 29 28 28 28 27 27 27 28 28 29 30 31 31 33 34 33 34 37 35 33 29 30 33 34 33 32 30
18 19 19 20 19 20 21 20 21 20 20 20 21 20 19 22 30 30 29 28 28 28 29 28 28 29 29 29 29 30 31 32 33 33 33 35 35 35 31 30 32 32 32 32 29
17 18 19 19 19 20 21 21 21 20 20 20 20 19 21 22 31 30 30 30 30 30 29 32 32 32 30 30 31 31 31 31 32 33 34 34 33 34 32 30 31 30 29 32 30
17 18 19 19 20 20 21 21 20 20 20 20 20 18 20 30 30 30 31 31 32 32 32 33 33 31 31 29 30 30 31 29 31 32 34 34 30 34 34 30 27 29 30 31 29
18 18 19 20 20 21 20 20 20 20 20 20 19 18 23 30 30 31 32 32 32 32 32 33 32 29 29 28 26 28 27 29 30 32 32 32 31 34 33 34 33 31 31 31 32
18 18 20 20 20 20 20 20 20 20 20 18 19 21 24 29 32 31 32 32 32 31 30 30 28 26 25 25 25 27 28 29 30 32 33 31 31 32 34 34 34 34 33 33 33
19 19 20 20 20 20 20 19 18 19 20 22 26 26 31 32 32 32 32 32 32 31 27 28 25 24 26 27 30 30 31 30 31 32 32 33 34 33 33 33 32 32 34 35 32
19 19 20 20 20 20 19 19 24 29 25 24 26 28 30 32 31 32 33 30 29 27 28 28 26 28 31 31 31 31 30 29 30 33 33 31 32 32 32 33 33 32 32 33 33
20 20 20 20 20 19 19 23 28 29 25 29 28 29 31 32 31 31 31 30 29 28 28 27 30 32 33 32 31 31 31 29 30 31 32 32 29 31 32 33 31 28 27 27 27
20 21 20 20 19 22 22 28 29 29 23 29 30 32 31 31 30 32 32 31 30 29 29 29 32 33 32 32 32 29 31 32 32 29 28 30 26 29 27 26 25 25 25 25 25
20 21 21 20 18 22 27 29 29 28 23 30 31 33 32 30 30 31 32 31 28 29 29 29 31 31 31 31 31 31 31 30 31 29 27 28 25 22 24 23 23 23 23 23 23
20 21 21 19 19 27 28 29 28 24 24 30 31 31 30 30 31 31 30 30 30 29 29 29 31 32 30 31 31 31 30 28 28 27 24 27 25 22 22 22 22 23 23 23 23
21 21 21 20 24 27 28 26 23 23 32 30 30 31 30 29 30 30 29 24 23 23 26 28 30 29 30 30 28 26 25 23 24 24 24 26 22 20 23 23 23 22 22 22 22
20 21 22 23 25 26 27 23 23 29 28 31 30 31 29 29 29 29 27 24 23 23 23 24 26 28 29 27 27 27 27 22 24 24 24 27 21 22 23 21 20 19 18 19 19
19 20 21 26 26 26 22 22 24 26 28 28 29 28 28 29 28 28 23 23 23 22 21 21 26 28 29 28 28 26 22 26 24 25 23 23 23 20 18 17 17 17 17 17 17
19 21 23 26 27 26 22 22 25 26 27 27 27 28 27 28 26 26 24 23 23 23 23 21 22 27 28 28 26 25 24 21 20 23 23 20 18 15 14 13 14 14 14 15 16
19 20 26 27 27 22 21 25 25 25 25 24 25 27 27 27 27 25 22 21 22 22 22 19 22 24 25 23 21 20 19 19 20 21 20 20 15 15 12 12 12 12 11 11 11
21 21 27 27 22 21 23 25 21 25 25 25 25 25 24 26 22 20 20 20 21 20 20 19 19 20 22 23 23 21 19 18 15 17 17 17 13 13 12 12 10 9 10 9 9
19 22 27 27 22 22 23 23 23 24 23 24 23 23 23 23 20 20 20 20 20 18 16 16 18 18 19 22 21 20 20 19 18 17 16 16 15 13 11 11 9 8 7 7 7
19 22 22 23 23 24 22 22 21 22 22 23 23 23 23 21 19 18 18 19 19 19 17 16 18 18 17 18 20 19 19 17 15 12 14 12 13 10 10 10 7 6 6 6 5
20 20 22 19 21 21 21 23 21 20 21 21 22 22 21 20 18 17 18 19 20 19 19 16 17 18 20 21 20 18 18 16 13 13 11 12 11 9 9 9 6 6 6 5 5
19 19 20 20 21 21 20 21 21 20 19 21 21 22 18 16 19 17 18 18 18 18 18 17 17 18 19 20 17 15 16 14 12 11 11 11 9 9 9 9 5 5 5 4 4
20 21 19 19 19 18 18 19 19 20 19 20 20 18 16 18 18 16 15 15 16 17 16 16 15 16 17 16 15 11 13 13 10 10 9 7 8 8 8 8 4 4 4 4 4